Showing default

KUIPER-00405, 68923

Orbit data source: Space-Track

KUIPER-00405, 68923 is a payload satellite owned by Kuiper Systems (US) in LEO that was launched on Thu, 30 Apr 2026 UTC via an ARIANE 64 launch vehicle from the Air Force Eastern Test Range (AFETR). Payload-class satellites include a variety of spacecraft equipped with specific instruments for various scientific and technological missions. These include communications satellites like Starlink; space stations such as the ISS; scientific satellites like the Hubble; Earth observation satellites from companies like Planet Labs, Umbra, and HawkEye 360; GPS; miniature CubeSats for education and research; and military/defense satellites.

Loading next visibility...
Identifier
68923, 2026-098E
Orbit
LEO
Country
Flag of USUS
Related business
Manufacturer
Kuiper Systems
Mission
Operational spacecraft
Bus & Motor
KUIPER, Unknown motor
Mass
~490 kg wet, ~490 kg dry
Launch date (UTC)
2026-04-30 (6 days ago)
Launch vehicle
ARIANE 64
Launch site
Air Force Eastern Test Range (AFETR)
Object type
Payload
Rocket body
Debris
Shape & HBR
Unknown
Radar Cross Section
RCS unknown

Expand to show TLE details & history
Last TLE update: 6 hours ago

TLE from 6 hours ago
0 KUIPER-00405
1 68923U 26098E   26126.25002315  .00053191  00000-0  16291-2 0  9998
2 68923  51.8772 269.8282 0014071   0.1938  53.8338 15.33196045  1683
Epoch: 2026-05-06T06:00Z
TLE epoch observation values (Epoch: 2026-05-06T06:00:02.000Z)
Latitude
39.75315°
Longitude
-3.81803°
Altitude
464.007 km
Speed
7.643 km/s
True Right ascension
20h 41m 12s
True Declination
39° 34' 37"
Sunlit
Object was in daylight at epoch
Visualization orbit readout
Latitude
Unknown
Longitude
Unknown
Altitude
Unknown
Speed
Unknown
Apparent Right ascension
Unknown
Apparent Declination
Unknown
Sunlit
N/A
Visualization observer readout
Local Sidereal Time
19:39:48
Azimuth
Unknown
Elevation
Unknown
Doppler factor
Unknown
Orbital elements
Apogee altitude
476.381 km
Perigee altitude
457.118 km
Semi-major axis
6,844.886 km
Eccentricity
0.00141
Inclination
51.8772°
RAAN
269.8282°
Arg. of periapsis
0.1938°
True anomaly
53.96411°
Mean anomaly
53.8338°
Eccentric anomaly
53.89894°
Mean motion
3.8326 °/min
Orbital period
93.93 mins
BSTAR
0.0016291
Loading maneuver chart data...
Computing Atmospheric mass density...
Loading historical data...
Loading historical data...
Loading historical data...
Loading historical data...
Loading historical data...
Loading historical data...
Loading historical data...

Documentation

Showing up to 5 results
|